Location: Roland
(31.1349°N, 85.4372°W)
Time: 04:03:36
(UTC+00:00)

Courier 1B - Pass Details

Date: 21 April 2021
Orbit: 962 x 1209 km, 28.3° (Epoch: 07 May)

Event Time Altitude Azimuth Distance (km) Brightness Sun altitude
Rises 16:03:09 0° 224° (SW) 3,847 10.6 60.6°
Reaches altitude 10° 16:06:20 10° 213° (SSW) 2,851 10.1 61.1°
Maximum altitude 16:12:06 29° 156° (SSE) 1,772 9.9 62.1°
Drops below altitude 10° 16:17:37 10° 99° (E) 2,730 10.4 63.0°
Sets 16:20:35 0° 88° (E) 3,658 10.8 63.5°
